Hebron, NE

3:52 AM CDT on April 23, 2017 (GMT -0500)
Hebron Municipal

Weather History for KHJH - January, 2012

Change the Weather History Date:

Thursday, January 12, 2012

  Actual Average Record
Temperature  
Mean Temperature 20 °F -  
Max Temperature 26 °F 31 °F 78 °F (2014)
Min Temperature 15 °F 11 °F -21 °F (1974)
Degree Days  
Heating Degree Days 44    
Moisture  
Dew Point 3 °F    
Average Humidity 51    
Maximum Humidity 79    
Minimum Humidity 19    
Precipitation  
Precipitation 0.00 in - - ()
Sea Level Pressure  
Sea Level Pressure 30.04 in    
Wind  
Wind Speed 19 mph (NNW)    
Max Wind Speed 28 mph    
Max Gust Speed 38 mph    
Visibility 10 miles    
Events Snow    
Averages and records for this station are not official NWS values.
T = Trace of Precipitation, MM = Missing Value Source: NWS Daily Summary

Daily Weather History Graph

Daily Weather History Graph

Search for Another Location

Airport or City:

Trip Planner

Search our weather history database for the weather conditions in past years. The results will help you decide how hot, cold, wet, or windy it might be!

Date:

Astronomy

Jan. 12, 2012 Rise Set
Actual Time 7:51 AM CST 5:25 PM CST
Civil Twilight 7:21 AM CST 5:55 PM CST
Nautical Twilight 6:48 AM CST 6:29 PM CST
Astronomical Twilight 6:15 AM CST 7:01 PM CST
Moon 9:32 PM CST (1/12) 9:36 AM CST (1/12)
Length of Visible Light 10h 33m
Length of Day
9h 33m
Waning Gibbous, 87% of the Moon is Illuminated
Jan 12
Waning Gibbous
Jan 16
Last Quarter
Jan 23
New
Jan 30
First Quarter
Feb 7
Full

Hourly Weather History & Observations

Time (CST) Temp. Windchill Dew Point Humidity Pressure Visibility Wind Dir Wind Speed Gust Speed Precip Events Conditions
12:15 AM 21.2 °F 4.5 °F 5.0 °F 50% 30.04 in 10.0 mi NNW 24.2 mph 36.8 mph N/A   Overcast
12:35 AM 21.2 °F 4.2 °F 3.2 °F 46% 30.05 in 10.0 mi NNW 25.3 mph 35.7 mph N/A   Overcast
12:55 AM 19.4 °F 2.8 °F 3.2 °F 49% 30.05 in 10.0 mi NNW 21.9 mph 32.2 mph N/A   Overcast
1:15 AM 19.4 °F 3.6 °F 5.0 °F 54% 30.05 in 10.0 mi NNW 19.6 mph 26.5 mph N/A   Overcast
1:35 AM 19.4 °F 3.6 °F 5.0 °F 54% 30.05 in 10.0 mi NNW 19.6 mph 34.5 mph N/A   Overcast
1:55 AM 17.6 °F -0.3 °F 3.2 °F 53% 30.05 in 10.0 mi NNW 24.2 mph 38.0 mph N/A   Overcast
2:15 AM 17.6 °F 1.3 °F 3.2 °F 53% 30.06 in 10.0 mi North 19.6 mph 32.2 mph N/A   Overcast
2:35 AM 17.6 °F 0.9 °F 5.0 °F 58% 30.06 in 10.0 mi NNW 20.7 mph 31.1 mph N/A   Overcast
2:55 AM 17.6 °F 1.3 °F 5.0 °F 58% 30.07 in 10.0 mi NNW 19.6 mph 33.4 mph N/A   Overcast
3:15 AM 17.6 °F -1.3 °F 5.0 °F 58% 30.06 in 10.0 mi NNW 27.6 mph 35.7 mph N/A   Overcast
3:35 AM 17.6 °F 0.9 °F 5.0 °F 58% 30.07 in 10.0 mi NNW 20.7 mph 31.1 mph N/A   Mostly Cloudy
3:55 AM 17.6 °F 0.9 °F 5.0 °F 58% 30.06 in 10.0 mi NNW 20.7 mph 29.9 mph N/A   Overcast
4:15 AM 17.6 °F 1.3 °F 5.0 °F 58% 30.05 in 10.0 mi NNW 19.6 mph 28.8 mph N/A   Mostly Cloudy
4:35 AM 15.8 °F 2.1 °F 5.0 °F 62% 30.05 in 10.0 mi North 12.7 mph 19.6 mph N/A   Mostly Cloudy
4:55 AM 17.6 °F 3.7 °F 5.0 °F 58% 30.05 in 10.0 mi NNW 13.8 mph 19.6 mph N/A   Overcast
5:15 AM 17.6 °F 4.3 °F 6.8 °F 63% 30.04 in 10.0 mi NNW 12.7 mph 17.3 mph N/A   Overcast
5:35 AM 17.6 °F 2.2 °F 5.0 °F 58% 30.04 in 10.0 mi NNW 17.3 mph 23.0 mph N/A   Overcast
5:55 AM 17.6 °F 0.9 °F 5.0 °F 58% 30.04 in 10.0 mi NNW 20.7 mph 27.6 mph N/A   Overcast
6:15 AM 15.8 °F 1.4 °F 8.6 °F 73% 30.04 in 10.0 mi NW 13.8 mph 17.3 mph N/A   Overcast
6:35 AM 15.8 °F 0.9 °F 10.4 °F 79% 30.04 in 5.0 mi NNW 15.0 mph 21.9 mph N/A Snow Light Snow
6:55 AM 15.8 °F 2.7 °F 10.4 °F 79% 30.05 in 4.0 mi NW 11.5 mph 17.3 mph N/A Snow Light Snow
7:15 AM 15.8 °F 2.7 °F 10.4 °F 79% 30.04 in 7.0 mi NW 11.5 mph 21.9 mph N/A Snow Light Snow
7:35 AM 15.8 °F 5.1 °F 10.4 °F 79% 30.03 in 10.0 mi NW 8.1 mph - N/A Snow Light Snow
7:55 AM 17.6 °F 5.0 °F 8.6 °F 68% 30.03 in 10.0 mi NNW 11.5 mph 25.3 mph N/A   Overcast
8:15 AM 17.6 °F 7.3 °F 8.6 °F 68% 30.03 in 10.0 mi NW 8.1 mph - N/A   Overcast
8:35 AM 17.6 °F 1.7 °F 8.6 °F 68% 30.03 in 10.0 mi NW 18.4 mph 25.3 mph N/A   Overcast
8:55 AM 15.8 °F -0.2 °F 5.0 °F 62% 30.04 in 10.0 mi NW 17.3 mph 26.5 mph N/A   Overcast
9:15 AM 15.8 °F -0.6 °F 5.0 °F 62% 30.05 in 10.0 mi NW 18.4 mph 25.3 mph N/A   Overcast
9:35 AM 15.8 °F -1.9 °F 5.0 °F 62% 30.05 in 10.0 mi NW 21.9 mph 28.8 mph N/A   Overcast
9:55 AM 15.8 °F 2.7 °F 3.2 °F 58% 30.05 in 10.0 mi NW 11.5 mph 28.8 mph N/A   Overcast
10:15 AM 15.8 °F 2.1 °F 5.0 °F 62% 30.05 in 10.0 mi NW 12.7 mph 24.2 mph N/A   Overcast
10:35 AM 15.8 °F -0.6 °F 3.2 °F 58% 30.06 in 10.0 mi NNW 18.4 mph 26.5 mph N/A   Overcast
10:55 AM 15.8 °F -1.1 °F 1.4 °F 53% 30.06 in 10.0 mi NNW 19.6 mph 28.8 mph N/A   Overcast
11:15 AM 17.6 °F 3.7 °F 3.2 °F 53% 30.05 in 10.0 mi NNW 13.8 mph 21.9 mph N/A   Overcast
11:35 AM 17.6 °F 1.7 °F 3.2 °F 53% 30.05 in 10.0 mi NNW 18.4 mph 25.3 mph N/A   Overcast
11:55 AM 19.4 °F 4.1 °F 3.2 °F 49% 30.04 in 10.0 mi NNW 18.4 mph 25.3 mph N/A   Overcast
12:15 PM 19.4 °F 4.1 °F 3.2 °F 49% 30.03 in 10.0 mi NW 18.4 mph 27.6 mph N/A   Overcast
12:35 PM 21.2 °F 6.8 °F 3.2 °F 46% 30.03 in 10.0 mi NW 17.3 mph 25.3 mph N/A   Mostly Cloudy
12:55 PM 23.0 °F 9.2 °F 3.2 °F 43% 30.01 in 10.0 mi NW 17.3 mph 24.2 mph N/A   Scattered Clouds
1:15 PM 21.2 °F 6.4 °F 3.2 °F 46% 30.01 in 10.0 mi NW 18.4 mph 27.6 mph N/A   Mostly Cloudy
1:35 PM 24.8 °F 11.1 °F 3.2 °F 40% 30.00 in 10.0 mi NW 18.4 mph 26.5 mph N/A   Mostly Cloudy
1:55 PM 24.8 °F 10.3 °F 3.2 °F 40% 30.00 in 10.0 mi NW 20.7 mph 26.5 mph N/A   Scattered Clouds
2:15 PM 26.6 °F 12.4 °F 3.2 °F 37% 30.00 in 10.0 mi NNW 21.9 mph 29.9 mph N/A   Clear
2:35 PM 26.6 °F 13.4 °F 3.2 °F 37% 29.99 in 10.0 mi NNW 18.4 mph 25.3 mph N/A   Clear
2:55 PM 26.6 °F 13.8 °F 1.4 °F 34% 30.00 in 10.0 mi NW 17.3 mph 28.8 mph N/A   Clear
3:15 PM 26.6 °F 12.7 °F -0.4 °F 31% 30.00 in 10.0 mi NW 20.7 mph 26.5 mph N/A   Clear
3:35 PM 26.6 °F 13.4 °F -0.4 °F 31% 30.01 in 10.0 mi NNW 18.4 mph 26.5 mph N/A   Clear
3:55 PM 26.6 °F 14.3 °F -4.0 °F 26% 30.01 in 10.0 mi NW 16.1 mph 25.3 mph N/A   Clear
4:15 PM 26.6 °F 15.2 °F -7.6 °F 22% 30.01 in 10.0 mi NNW 13.8 mph 27.6 mph N/A   Clear
4:35 PM 26.6 °F 14.3 °F -9.4 °F 21% 30.01 in 10.0 mi NW 16.1 mph 25.3 mph N/A   Clear
4:55 PM 26.6 °F 15.2 °F -9.4 °F 21% 30.01 in 10.0 mi NW 13.8 mph 21.9 mph N/A   Clear
5:15 PM 26.6 °F 16.8 °F -11.2 °F 19% 30.02 in 10.0 mi NW 10.4 mph 18.4 mph N/A   Clear
5:35 PM 24.8 °F 14.0 °F -11.2 °F 20% 30.02 in 10.0 mi NNW 11.5 mph - N/A   Clear
5:55 PM 23.0 °F 14.7 °F -9.4 °F 24% 30.02 in 10.0 mi NW 6.9 mph - N/A   Clear
6:15 PM 23.0 °F 14.7 °F -9.4 °F 24% 30.02 in 10.0 mi NNW 6.9 mph - N/A   Clear
6:35 PM 21.2 °F 13.6 °F -11.2 °F 24% 30.02 in 10.0 mi NW 5.8 mph - N/A   Clear
6:55 PM 21.2 °F 12.6 °F -9.4 °F 26% 30.02 in 10.0 mi NW 6.9 mph - N/A   Clear
7:15 PM 19.4 °F 9.5 °F -9.4 °F 28% 30.03 in 10.0 mi NW 8.1 mph - N/A   Clear
7:35 PM 21.2 °F 11.7 °F -11.2 °F 24% 30.03 in 10.0 mi NNW 8.1 mph - N/A   Clear
7:55 PM 19.4 °F 10.4 °F -9.4 °F 28% 30.04 in 10.0 mi WNW 6.9 mph - N/A   Clear
8:15 PM 19.4 °F 9.5 °F -9.4 °F 28% 30.05 in 10.0 mi NW 8.1 mph - N/A   Clear
8:35 PM 19.4 °F 9.5 °F -9.4 °F 28% 30.05 in 10.0 mi NW 8.1 mph - N/A   Clear
8:55 PM 19.4 °F 9.5 °F -9.4 °F 28% 30.05 in 10.0 mi NW 8.1 mph - N/A   Clear
9:15 PM 17.6 °F 8.2 °F -9.4 °F 30% 30.06 in 10.0 mi NW 6.9 mph - N/A   Clear
9:35 PM 15.8 °F 7.2 °F -7.6 °F 35% 30.06 in 10.0 mi WNW 5.8 mph - N/A   Clear
9:55 PM 14.0 °F 5.1 °F -7.6 °F 38% 30.07 in 10.0 mi WNW 5.8 mph - N/A   Clear
10:15 PM 14.0 °F 5.1 °F -7.6 °F 38% 30.06 in 10.0 mi NW 5.8 mph - N/A   Clear
10:35 PM 14.0 °F 3.9 °F -7.6 °F 38% 30.08 in 10.0 mi WNW 6.9 mph - N/A   Clear
10:55 PM 14.0 °F 8.2 °F -7.6 °F 38% 30.08 in 10.0 mi NW 3.5 mph - N/A   Clear
11:15 PM 12.2 °F 4.3 °F -5.8 °F 45% 30.07 in 10.0 mi WNW 4.6 mph - N/A   Clear
11:35 PM 12.2 °F 4.3 °F -5.8 °F 45% 30.06 in 10.0 mi NW 4.6 mph - N/A   Clear
11:55 PM 12.2 °F 4.3 °F -4.0 °F 48% 30.08 in 10.0 mi WNW 4.6 mph - N/A   Clear